Wind_Speed
16 15 15 15 15 15 15 14 14 14 14 13 13 13 12 12 12 11 11 11 11 10 10 10 10 10 10 9 9 8 8 8 9 9 9 9 9 8 8 7 7 8 9
17 16 16 16 15 15 15 15 14 14 14 14 14 14 14 13 13 13 12 12 12 11 11 11 11 11 11 10 10 10 10 10 10 10 10 10 10 10 10 10 9 9 9
18 17 17 16 16 16 15 15 15 15 15 15 15 15 15 14 14 14 14 14 13 13 13 12 12 12 12 12 11 11 11 11 11 11 11 12 11 11 11 11 10 10 10
19 18 18 18 17 16 16 16 16 15 15 15 15 15 15 15 15 15 15 15 14 14 14 13 13 13 13 13 13 13 13 13 12 12 12 13 13 12 12 12 11 11 11
20 19 19 19 19 18 17 17 17 17 16 16 15 15 16 16 16 16 16 15 15 15 15 15 15 15 15 14 14 14 14 14 13 13 13 13 13 13 13 12 12 12 12
20 20 20 19 19 19 18 18 18 17 17 17 16 16 16 16 16 16 16 16 16 16 16 16 15 15 15 16 15 15 15 15 15 14 14 15 15 15 14 14 14 13 13
21 21 21 21 20 20 19 19 19 19 18 17 17 17 17 16 17 16 17 16 16 16 16 16 16 16 15 16 16 16 16 16 16 16 16 16 16 16 16 16 16 15 14
22 22 22 22 22 21 21 21 21 20 20 19 19 19 18 18 18 18 18 18 17 17 17 17 16 16 16 16 17 17 17 17 17 17 16 17 17 18 18 18 17 16 16
23 23 23 23 23 23 23 22 22 22 22 21 20 20 19 19 19 19 19 19 18 19 18 18 17 17 18 17 18 18 19 19 19 18 18 17 18 18 18 18 17 17 17
25 24 24 24 23 23 24 23 23 23 23 23 22 21 20 20 20 20 20 20 20 20 19 19 19 18 18 18 18 19 20 20 21 20 20 20 20 20 19 19 18 19 19
27 26 25 25 25 25 25 25 25 24 24 23 23 22 22 21 21 21 21 21 21 20 20 20 20 20 20 19 19 20 21 22 22 22 22 22 22 22 22 21 21 20 20
28 27 27 27 27 27 27 26 26 26 26 25 24 24 23 23 23 22 22 22 22 22 21 21 21 22 21 21 22 22 22 22 23 23 24 23 24 23 23 23 23 22 21
29 28 28 28 29 28 28 28 28 27 27 26 25 25 25 24 24 24 23 23 23 23 22 22 23 23 23 23 23 23 24 24 24 24 24 25 25 25 24 24 24 23 23
31 30 30 29 29 29 29 29 29 29 28 27 27 26 26 25 25 25 25 25 25 25 24 24 24 24 24 24 24 25 25 24 25 24 25 25 26 25 25 25 25 25 25
33 31 31 30 30 30 30 30 30 30 29 29 28 28 28 27 26 26 26 26 27 27 26 26 26 25 25 25 26 26 26 26 26 26 26 26 26 26 26 26 26 26 26
34 33 33 32 31 31 31 31 30 30 30 29 29 29 29 28 27 27 27 27 27 27 27 27 27 26 26 26 27 27 27 27 27 27 27 27 28 28 27 27 27 28 28
36 35 34 33 32 32 32 32 32 31 31 30 30 30 30 29 28 28 28 28 28 27 28 28 28 28 28 28 28 29 29 29 28 28 29 29 29 29 29 29 29 29 29
37 37 36 35 34 34 33 34 33 33 32 32 32 31 31 30 29 29 29 29 29 29 29 29 29 29 29 29 30 30 30 30 30 30 30 30 31 31 31 31 31 31 31
38 38 38 36 35 35 35 36 35 34 34 34 33 33 32 32 31 31 30 30 30 30 30 30 30 30 30 30 30 31 31 31 31 31 31 31 31 32 33 33 34 34 33
37 38 37 37 37 36 36 36 36 35 36 35 35 35 34 34 33 32 32 31 31 31 31 31 31 31 31 31 31 31 31 31 31 32 32 32 33 33 33 34 35 36 36
38 37 38 38 38 38 37 37 37 37 37 36 36 36 36 36 35 34 33 32 32 32 32 32 32 32 32 32 32 31 32 32 32 32 33 33 34 34 34 35 36 37 38
38 39 39 39 40 40 39 39 38 38 38 38 37 37 37 36 35 35 35 34 34 33 32 33 33 33 33 33 33 33 33 33 33 34 34 34 34 35 35 35 36 37 37
39 40 40 41 41 41 41 40 40 39 40 39 38 38 39 38 37 36 36 35 35 34 34 34 34 34 34 34 34 34 35 35 35 35 35 35 35 36 36 36 37 37 38
40 40 40 42 42 42 41 41 41 41 41 41 40 39 39 39 39 38 38 37 37 36 36 35 35 35 36 36 36 36 36 36 36 36 36 37 37 37 37 38 38 38 39
41 41 41 42 43 43 43 42 42 42 42 42 42 41 40 40 40 40 40 39 39 38 37 37 37 37 37 37 37 37 37 37 38 37 37 38 38 38 39 39 39 40 41
39 41 42 42 42 43 43 43 43 43 43 43 43 43 42 42 42 42 42 41 40 39 39 39 39 38 38 38 38 38 38 38 38 38 39 39 40 40 40 40 41 42 42
Wind_Direction
249 248 245 244 242 240 240 239 238 237 236 236 238 238 238 237 236 234 231 231 230 229 231 231 235 233 233 238 238 238 239 240 240 242 242 244 248 248 246 244 240 237 235
247 246 245 243 240 238 238 238 238 237 238 239 240 241 240 240 240 238 234 234 233 235 238 239 239 238 238 240 241 242 244 242 243 244 244 245 247 248 248 248 246 241 239
246 245 244 242 239 238 238 238 239 239 239 239 239 240 241 240 240 240 240 240 241 242 242 243 244 243 242 243 244 244 244 245 245 244 244 244 247 247 248 247 246 244 241
246 245 244 242 240 239 239 239 240 240 240 240 240 241 241 240 241 243 244 245 246 246 245 245 246 246 245 246 245 245 245 246 243 244 244 244 245 245 244 244 243 245 244
245 244 243 241 240 240 240 239 240 241 240 241 242 242 242 242 242 243 245 247 247 247 247 246 247 247 246 246 246 246 245 245 244 246 243 243 245 244 243 243 243 246 248
246 244 241 240 239 239 239 239 241 241 241 241 242 242 243 243 243 243 245 247 248 248 249 250 250 249 249 248 247 246 246 245 245 247 246 245 245 244 244 246 246 249 251
244 243 241 241 240 239 239 239 240 242 242 243 244 243 242 242 243 243 245 248 247 248 249 250 251 251 251 249 247 246 247 247 247 248 248 247 245 246 247 248 249 248 249
242 242 242 242 241 241 241 241 241 242 244 244 245 244 242 243 244 244 246 248 248 250 250 250 250 250 251 250 249 247 247 248 248 248 249 249 248 248 249 249 249 248 249
242 242 242 242 242 242 242 243 243 244 245 244 244 244 245 246 246 246 247 248 250 250 251 250 249 250 251 250 250 248 248 248 249 248 247 249 250 250 249 250 250 250 251
241 241 242 242 243 243 243 244 244 243 244 244 245 245 247 246 246 247 248 249 250 251 251 251 251 251 251 250 250 250 250 250 250 249 248 249 250 249 249 250 250 252 251
241 240 241 242 243 244 244 245 245 245 245 246 246 247 247 246 247 248 249 249 250 250 251 252 251 251 251 251 251 252 253 253 252 251 250 250 250 249 249 249 250 251 252
241 241 240 241 243 244 244 245 245 245 246 246 247 248 247 247 248 248 249 250 251 251 252 253 253 252 252 253 253 254 254 255 254 253 252 251 251 251 250 250 251 251 253
240 241 241 243 242 243 245 246 246 247 247 247 248 249 249 249 249 249 250 252 252 252 252 253 253 254 254 254 254 254 255 256 256 254 254 253 252 252 252 252 252 251 252
238 240 241 240 241 243 245 246 246 246 247 247 248 248 249 248 249 250 251 252 253 252 252 253 254 255 254 254 254 254 255 256 256 256 256 255 253 252 252 253 253 253 253
238 239 240 240 242 243 244 244 245 245 246 246 247 247 249 249 251 251 252 253 254 253 254 254 254 255 255 255 255 255 255 255 256 257 258 257 255 253 252 253 254 254 254
240 240 241 240 241 241 243 244 245 245 245 246 247 248 249 250 252 252 252 253 253 253 254 254 254 255 255 256 256 256 256 256 257 257 257 258 256 254 254 253 254 255 255
241 241 240 240 240 241 243 244 244 245 246 246 247 248 249 250 251 252 253 253 254 253 254 255 255 256 256 257 256 256 257 258 258 258 258 258 258 255 254 254 254 254 255
242 240 239 240 240 241 244 244 244 244 246 247 248 248 249 250 250 251 252 253 254 253 255 256 256 257 257 258 258 257 258 259 260 260 260 259 259 256 255 256 256 256 256
242 241 240 240 241 242 243 245 244 244 245 247 248 248 249 249 250 250 251 253 254 254 255 257 257 257 258 259 259 259 259 259 260 260 260 261 260 258 257 256 256 256 256
242 242 240 241 241 242 242 244 244 245 245 245 247 248 248 249 250 250 251 252 253 254 256 257 257 258 259 260 260 260 259 259 260 259 260 262 261 260 259 258 258 257 257
242 241 240 241 242 242 242 243 244 245 245 245 246 247 248 249 250 250 251 252 253 254 255 256 257 258 259 260 261 260 260 259 261 262 262 262 261 259 260 259 260 259 258
241 241 242 242 242 243 244 244 244 244 245 245 247 248 249 249 249 250 250 251 253 254 255 256 258 258 259 261 261 261 261 261 262 263 263 262 261 261 260 260 260 260 260
241 241 242 242 242 243 243 244 244 245 246 245 246 247 248 248 248 250 251 253 253 253 256 257 257 257 259 260 261 261 261 262 263 264 263 263 262 262 261 261 261 261 261
242 241 243 242 242 242 242 243 244 246 246 245 247 247 246 247 248 250 251 252 254 255 256 257 258 258 258 260 261 262 263 263 264 264 263 263 263 263 263 262 261 262 262
243 242 244 243 242 242 242 243 244 246 246 246 247 248 247 247 249 251 252 253 254 255 255 257 258 259 259 261 262 263 264 265 264 263 263 263 263 264 264 263 262 262 264
243 243 244 243 242 242 243 244 244 246 246 247 248 248 249 249 250 251 251 253 254 254 255 256 257 259 260 261 262 263 265 265 265 265 264 264 264 265 265 264 263 264 265
Height
5819 5820 5821 5821 5822 5823 5824 5825 5826 5827 5828 5829 5830 5831 5831 5832 5832 5833 5834 5834 5835 5836 5836 5837 5837 5837 5838 5838 5839 5840 5840 5841 5841 5842 5843 5843 5844 5844 5845 5845 5845 5846 5846
5816 5817 5818 5819 5820 5820 5822 5823 5824 5825 5825 5826 5827 5828 5829 5830 5830 5831 5831 5832 5833 5834 5834 5834 5835 5836 5836 5837 5837 5838 5838 5839 5840 5840 5841 5842 5842 5843 5843 5844 5844 5844 5845
5812 5813 5814 5815 5817 5818 5819 5820 5821 5822 5823 5824 5825 5826 5826 5827 5828 5828 5829 5830 5831 5831 5832 5832 5833 5833 5834 5835 5835 5836 5836 5837 5838 5838 5839 5840 5840 5841 5841 5842 5842 5843 5843
5809 5810 5811 5812 5813 5814 5816 5817 5818 5819 5820 5821 5822 5823 5824 5824 5825 5826 5826 5827 5828 5828 5829 5830 5830 5831 5831 5832 5833 5833 5834 5835 5835 5836 5837 5837 5838 5839 5839 5840 5841 5841 5841
5805 5806 5807 5808 5810 5811 5812 5814 5815 5816 5817 5818 5819 5820 5821 5821 5822 5823 5824 5824 5825 5826 5826 5827 5827 5828 5829 5829 5830 5831 5832 5832 5833 5834 5834 5835 5836 5837 5837 5838 5839 5839 5839
5800 5802 5803 5805 5806 5807 5809 5810 5811 5812 5814 5815 5815 5816 5817 5818 5819 5820 5821 5821 5822 5822 5823 5824 5824 5825 5826 5826 5827 5828 5829 5830 5830 5831 5832 5833 5833 5834 5835 5836 5836 5836 5837
5796 5798 5799 5801 5802 5804 5805 5806 5808 5809 5810 5811 5812 5813 5814 5815 5816 5816 5817 5818 5819 5819 5820 5820 5821 5822 5822 5823 5824 5825 5826 5827 5828 5828 5829 5830 5831 5831 5832 5833 5833 5834 5834
5791 5793 5795 5796 5798 5800 5801 5802 5804 5805 5806 5807 5808 5809 5810 5811 5812 5813 5814 5815 5815 5816 5816 5817 5818 5818 5819 5820 5820 5822 5823 5823 5824 5825 5826 5827 5828 5828 5829 5830 5830 5831 5831
5786 5788 5790 5792 5793 5795 5796 5798 5799 5800 5802 5803 5804 5805 5806 5807 5808 5809 5810 5810 5811 5812 5812 5813 5814 5815 5815 5816 5817 5818 5819 5820 5821 5822 5822 5823 5824 5825 5826 5826 5827 5828 5828
5781 5783 5785 5787 5788 5790 5791 5793 5794 5796 5797 5798 5799 5800 5801 5803 5804 5804 5805 5806 5807 5808 5808 5809 5810 5811 5812 5812 5813 5814 5815 5815 5816 5817 5818 5819 5820 5821 5822 5823 5823 5824 5824
5775 5777 5779 5781 5783 5784 5786 5788 5789 5790 5792 5793 5794 5795 5797 5798 5799 5800 5801 5802 5803 5803 5804 5805 5806 5807 5807 5808 5809 5809 5810 5811 5812 5813 5814 5815 5816 5817 5818 5819 5819 5820 5820
5769 5771 5773 5775 5777 5779 5780 5782 5784 5785 5786 5788 5789 5790 5792 5793 5794 5795 5796 5797 5798 5799 5799 5800 5801 5802 5803 5803 5804 5805 5805 5806 5807 5808 5809 5810 5811 5812 5813 5814 5815 5815 5816
5763 5765 5767 5769 5770 5772 5774 5776 5778 5779 5781 5782 5784 5785 5786 5788 5789 5790 5791 5792 5792 5793 5794 5795 5796 5797 5797 5798 5799 5799 5800 5801 5801 5802 5803 5804 5806 5807 5808 5809 5810 5810 5811
5756 5758 5761 5762 5763 5765 5768 5769 5771 5773 5775 5777 5778 5779 5781 5782 5783 5785 5785 5786 5787 5788 5788 5789 5790 5791 5792 5792 5793 5794 5795 5795 5796 5797 5798 5799 5800 5801 5802 5803 5804 5805 5806
5749 5751 5753 5755 5757 5759 5761 5763 5765 5766 5769 5770 5772 5774 5775 5776 5777 5778 5779 5780 5781 5782 5783 5783 5784 5785 5786 5786 5787 5788 5789 5789 5790 5791 5792 5793 5794 5795 5796 5797 5798 5799 5800
5740 5743 5746 5748 5750 5752 5754 5756 5758 5760 5762 5764 5765 5767 5768 5770 5771 5772 5773 5774 5775 5776 5777 5777 5778 5779 5780 5780 5781 5782 5782 5783 5784 5785 5785 5786 5787 5788 5789 5791 5792 5793 5794
5732 5735 5738 5740 5743 5745 5747 5749 5751 5753 5755 5757 5759 5760 5762 5763 5764 5765 5766 5767 5768 5769 5770 5771 5772 5772 5773 5774 5775 5775 5776 5776 5777 5778 5778 5779 5780 5781 5782 5783 5785 5786 5787
5724 5727 5730 5732 5735 5737 5739 5741 5744 5746 5748 5750 5751 5753 5755 5756 5757 5759 5759 5760 5761 5762 5763 5764 5765 5766 5766 5767 5768 5768 5769 5769 5770 5771 5771 5772 5773 5773 5775 5776 5777 5778 5779
5715 5718 5721 5724 5727 5729 5732 5734 5736 5738 5740 5741 5743 5745 5747 5749 5750 5751 5752 5753 5754 5755 5756 5757 5758 5759 5759 5760 5760 5761 5761 5762 5762 5763 5764 5764 5765 5765 5766 5767 5769 5770 5771
5707 5709 5712 5715 5718 5721 5723 5725 5727 5729 5732 5733 5735 5737 5739 5741 5742 5744 5745 5746 5747 5748 5749 5750 5751 5752 5752 5753 5753 5754 5754 5754 5755 5755 5756 5756 5756 5757 5758 5759 5760 5761 5762
5698 5700 5703 5706 5709 5711 5714 5716 5719 5721 5723 5725 5727 5729 5731 5732 5734 5736 5737 5739 5740 5741 5742 5742 5743 5744 5745 5745 5746 5746 5746 5747 5747 5747 5747 5748 5748 5748 5749 5750 5751 5752 5753
5688 5691 5694 5697 5700 5702 5705 5708 5710 5712 5714 5716 5718 5720 5722 5724 5726 5728 5729 5730 5732 5733 5734 5735 5735 5736 5737 5737 5738 5738 5739 5739 5739 5739 5739 5739 5739 5739 5740 5741 5742 5743 5744
5678 5681 5684 5687 5690 5692 5695 5698 5700 5702 5705 5707 5709 5711 5713 5715 5717 5719 5721 5722 5723 5725 5726 5727 5727 5728 5729 5729 5730 5731 5731 5731 5731 5730 5730 5730 5730 5730 5730 5731 5732 5733 5734
5668 5671 5674 5676 5679 5682 5685 5688 5691 5693 5695 5698 5700 5702 5704 5706 5708 5710 5712 5713 5715 5716 5717 5718 5719 5720 5720 5721 5721 5721 5722 5722 5722 5721 5721 5721 5721 5721 5721 5721 5722 5723 5724
5658 5661 5663 5666 5669 5672 5675 5678 5680 5683 5686 5688 5690 5693 5695 5697 5699 5701 5703 5704 5705 5707 5708 5709 5710 5711 5711 5712 5712 5712 5712 5712 5712 5712 5712 5711 5711 5711 5711 5712 5712 5713 5714
5647 5650 5653 5655 5658 5662 5665 5668 5670 5673 5675 5678 5680 5683 5685 5687 5689 5691 5693 5694 5696 5697 5699 5700 5701 5701 5702 5703 5703 5703 5703 5703 5703 5702 5702 5702 5702 5702 5701 5702 5702 5703 5703